Погода в Шаяне

Казахстан     43°01′55″N   69°22′52″E
темп.,
°C
ветер,
м/с
пор.,
м/с
влажн.,
%
обл.,
%
осадки,
мм/ч
давл.,
гПа
погр.,
м
21 января, чт
чт2100:00+6всв3363100 0.0 101928
03:00+5в3458100 0.0 101727
06:00+5в3447100 0.0 101431
09:00+4в1139100 0.0 101222
12:00+9ссз1134100 0.0 101061
15:00+11с1130100 0.0 1008247
18:00+8ссв1240100 0.0 100625
21:00+7ссв1245100 0.0 100731
22 января, пт
пт2200:00+3ссв4576100 0.1 1009147
03:00+2сз0197100 5.4 1012169
06:00−4св5994100 12.9 1017382
09:00−4с4694100 3.9 1026377
12:00−8зюз6991100 5.9 1032660
15:00−8зюз5882100 0.1 1034800
18:00−8юз3787100 0.1 1035484
21:00−9ююз379099 0.0 1037175
23 января, сб
сб2300:00−8ю3109092 0.0 1037301
03:00−7юз71389100 0.0 1037675
06:00−8юз61485100 0.0 1037821
09:00−6ююз91494100 0.6 1037917
12:00−5ююз111693100 1.6 10361273
15:00−4ююз121689100 1.4 10351148
18:00−4ююз111794100 2.8 10341192
21:00−4ююз111793100 1.9 10371041
24 января, вс
вс2400:00−3ююз101689100 3.0 1038884
03:00−4ююз61486100 0.3 1040516
06:00−6ююз3791100 0.4 1040193
09:00−7юв1190100 0.2 104121
12:00−4вюв228897 0.3 1041130
15:00−2всв228547 0.0 1039193
18:00−5св228224 0.0 103821
21:00−7св23780 0.0 103821
25 января, пн
пн2500:00−7всв23780 0.0 103722
03:00−8св23720 0.0 103622
06:00−8всв23660 0.0 103522
09:00−9всв22670 0.0 103522
12:00−4всв12760 0.0 103560
15:00−2ссв11760 0.0 103357
18:00−6св12730 0.0 103421
21:00−8всв23660 0.0 103422